Location: Memmingen
(47.9830°N, 10.1733°E)
Time: 07:39:04
(UTC+01:00)

OTV 5 (USA 277) - Visible Passes

Search period start: 17 January 2018 00:00
Search period end: 27 January 2018 00:00
Orbit: 404 x 417 km, 43.0° (Epoch: 07 September)

Date Brightness Start Highest point End Pass type
(mag) Time Alt. Az. Time Alt. Az. Time Alt. Az.
23 Jan ? 19:17:16 10° SSW 19:18:11 14° S 19:18:11 14° S visible
24 Jan ? 18:27:04 10° S 18:28:36 13° SSE 18:29:40 11° SE visible
24 Jan ? 20:02:19 10° SW 20:02:26 11° SW 20:02:26 11° SW visible
25 Jan ? 19:11:31 10° SW 19:13:51 24° S 19:13:51 24° S visible
26 Jan ? 18:20:48 10° SSW 18:23:25 21° SSE 18:25:15 14° ESE visible
26 Jan ? 19:57:10 10° WSW 19:58:01 16° WSW 19:58:01 16° WSW visible
